owner,sensor,date,latitude,longitude,vertical_datum,sea_water_practical_salinity,qcFlag 
SCCF RECON,ioos:station:SCCF:53:1,2011-08-01T00:00:00Z,26.6493,-81.8810,2.49,10.98,1111122 
SCCF RECON,ioos:station:SCCF:53:1,2011-08-01T01:00:00Z,26.6493,-81.8810,2.428,11.11,1111122 
SCCF RECON,ioos:station:SCCF:53:1,2011-08-01T02:00:00Z,26.6493,-81.8810,2.37,11.47,1111122 
SCCF RECON,ioos:station:SCCF:53:1,2011-08-01T03:00:00Z,26.6493,-81.8810,2.31,11.51,1111122 
SCCF RECON,ioos:station:SCCF:53:1,2011-08-01T04:00:00Z,26.6493,-81.8810,2.26,11.54,1111122 
SCCF RECON,ioos:station:SCCF:53:1,2011-08-01T05:00:00Z,26.6493,-81.8810,2.25,11.11,1111122 
SCCF RECON,ioos:station:SCCF:53:1,2011-08-01T06:00:00Z,26.6493,-81.8810,2.31,10.74,1111122 
SCCF RECON,ioos:station:SCCF:53:1,2011-08-01T07:00:00Z,26.6493,-81.8810,2.36,11.37,1111122 
SCCF RECON,ioos:station:SCCF:53:1,2011-08-01T08:00:00Z,26.6493,-81.8810,2.42,12.16,1111122 
SCCF RECON,ioos:station:SCCF:53:1,2011-08-01T09:00:00Z,26.6493,-81.8810,2.48,11.63,1111122 
SCCF RECON,ioos:station:SCCF:53:1,2011-08-01T10:00:00Z,26.6493,-81.8810,2.51,11.77,1111122 
SCCF RECON,ioos:station:SCCF:53:1,2011-08-01T11:00:00Z,26.6493,-81.8810,2.477,11.34,1111122 
SCCF RECON,ioos:station:SCCF:53:1,2011-08-01T12:00:00Z,26.6493,-81.8810,2.42,10.47,1111122 
SCCF RECON,ioos:station:SCCF:53:1,2011-08-01T13:00:00Z,26.6493,-81.8810,2.37,10.99,1111122 
SCCF RECON,ioos:station:SCCF:53:1,2011-08-01T14:00:00Z,26.6493,-81.8810,2.32,11.12,1111122 
SCCF RECON,ioos:station:SCCF:53:1,2011-08-01T15:00:00Z,26.6493,-81.8810,2.28,11.39,1111122 
SCCF RECON,ioos:station:SCCF:53:1,2011-08-01T16:00:00Z,26.6493,-81.8810,2.3,11.06,1111122 
SCCF RECON,ioos:station:SCCF:53:1,2011-08-01T17:00:00Z,26.6493,-81.8810,2.38,10.37,1111122 
SCCF RECON,ioos:station:SCCF:53:1,2011-08-01T18:00:00Z,26.6493,-81.8810,2.441,11.05,1111122 
SCCF RECON,ioos:station:SCCF:53:1,2011-08-01T19:00:00Z,26.6493,-81.8810,2.52,12.43,1111122 
SCCF RECON,ioos:station:SCCF:53:1,2011-08-01T20:00:00Z,26.6493,-81.8810,2.577,11.9,1111122 
SCCF RECON,ioos:station:SCCF:53:1,2011-08-01T21:00:00Z,26.6493,-81.8810,2.62,12.44,1111122 
SCCF RECON,ioos:station:SCCF:53:1,2011-08-01T22:00:00Z,26.6493,-81.8810,2.63,12.27,1111122 
SCCF RECON,ioos:station:SCCF:53:1,2011-08-01T23:00:00Z,26.6493,-81.8810,2.581,9.91,1111122 
SCCF RECON,ioos:station:SCCF:53:1,2011-08-02T00:00:00Z,26.6493,-81.8810,2.52,8.38,1111122 
SCCF RECON,ioos:station:SCCF:53:1,2011-08-02T01:00:00Z,26.6493,-81.8810,2.47,7.75,1111122 
SCCF RECON,ioos:station:SCCF:53:1,2011-08-02T02:00:00Z,26.6493,-81.8810,2.39,9.7,1111122 
SCCF RECON,ioos:station:SCCF:53:1,2011-08-02T03:00:00Z,26.6493,-81.8810,2.33,10.31,1111122 
SCCF RECON,ioos:station:SCCF:53:1,2011-08-02T04:00:00Z,26.6493,-81.8810,2.27,10.63,1111122 
SCCF RECON,ioos:station:SCCF:53:1,2011-08-02T05:00:00Z,26.6493,-81.8810,2.22,10.16,1111122 
SCCF RECON,ioos:station:SCCF:53:1,2011-08-02T06:00:00Z,26.6493,-81.8810,2.25,10.26,1111122 
SCCF RECON,ioos:station:SCCF:53:1,2011-08-02T07:00:00Z,26.6493,-81.8810,2.308,10.11,1111122 
SCCF RECON,ioos:station:SCCF:53:1,2011-08-02T08:00:00Z,26.6493,-81.8810,2.36,11.32,1111122 
SCCF RECON,ioos:station:SCCF:53:1,2011-08-02T09:00:00Z,26.6493,-81.8810,2.42,11.68,1111122 
SCCF RECON,ioos:station:SCCF:53:1,2011-08-02T10:00:00Z,26.6493,-81.8810,2.47,11.42,1111122 
SCCF RECON,ioos:station:SCCF:53:1,2011-08-02T11:00:00Z,26.6493,-81.8810,2.46,11.8,1111122 
SCCF RECON,ioos:station:SCCF:53:1,2011-08-02T12:00:00Z,26.6493,-81.8810,2.42,10.32,1111122 
SCCF RECON,ioos:station:SCCF:53:1,2011-08-02T13:00:00Z,26.6493,-81.8810,2.365,9.75,1111122 
SCCF RECON,ioos:station:SCCF:53:1,2011-08-02T14:00:00Z,26.6493,-81.8810,2.311,10.2,1111122 
SCCF RECON,ioos:station:SCCF:53:1,2011-08-02T15:00:00Z,26.6493,-81.8810,2.267,10.17,1111122 
SCCF RECON,ioos:station:SCCF:53:1,2011-08-02T16:00:00Z,26.6493,-81.8810,2.23,10.47,1111122 
SCCF RECON,ioos:station:SCCF:53:1,2011-08-02T17:00:00Z,26.6493,-81.8810,2.26,10.18,1111122 
SCCF RECON,ioos:station:SCCF:53:1,2011-08-02T18:00:00Z,26.6493,-81.8810,2.314,9.89,1111122 
SCCF RECON,ioos:station:SCCF:53:1,2011-08-02T19:00:00Z,26.6493,-81.8810,2.38,9.61,1111122 
SCCF RECON,ioos:station:SCCF:53:1,2011-08-02T20:00:00Z,26.6493,-81.8810,2.44,11.83,1111122 
SCCF RECON,ioos:station:SCCF:53:1,2011-08-02T21:00:00Z,26.6493,-81.8810,2.503,11.53,1111122 
SCCF RECON,ioos:station:SCCF:53:1,2011-08-02T22:00:00Z,26.6493,-81.8810,2.541,11.25,1111122 
SCCF RECON,ioos:station:SCCF:53:1,2011-08-02T23:00:00Z,26.6493,-81.8810,2.558,10.26,1111122 
SCCF RECON,ioos:station:SCCF:53:1,2011-08-03T00:00:00Z,26.6493,-81.8810,2.51,9.05,1111122 
SCCF RECON,ioos:station:SCCF:53:1,2011-08-03T01:00:00Z,26.6493,-81.8810,2.441,7.82,1111122 
SCCF RECON,ioos:station:SCCF:53:1,2011-08-03T02:00:00Z,26.6493,-81.8810,2.39,7.76,1111122 
SCCF RECON,ioos:station:SCCF:53:1,2011-08-03T03:00:00Z,26.6493,-81.8810,2.34,7.43,1111122 
SCCF RECON,ioos:station:SCCF:53:1,2011-08-03T04:00:00Z,26.6493,-81.8810,2.28,7.19,1111122 
SCCF RECON,ioos:station:SCCF:53:1,2011-08-03T05:00:00Z,26.6493,-81.8810,2.23,6.95,1111122 
SCCF RECON,ioos:station:SCCF:53:1,2011-08-03T06:00:00Z,26.6493,-81.8810,2.23,9.03,1111122 
SCCF RECON,ioos:station:SCCF:53:1,2011-08-03T07:00:00Z,26.6493,-81.8810,2.3,9.8,1111122 
SCCF RECON,ioos:station:SCCF:53:1,2011-08-03T08:00:00Z,26.6493,-81.8810,2.359,9.84,1111122 
SCCF RECON,ioos:station:SCCF:53:1,2011-08-03T09:00:00Z,26.6493,-81.8810,2.42,10.25,1111122 
SCCF RECON,ioos:station:SCCF:53:1,2011-08-03T10:00:00Z,26.6493,-81.8810,2.48,10.57,1111122 
SCCF RECON,ioos:station:SCCF:53:1,2011-08-03T11:00:00Z,26.6493,-81.8810,2.5,10.65,1111122 
SCCF RECON,ioos:station:SCCF:53:1,2011-08-03T12:00:00Z,26.6493,-81.8810,2.48,10.09,1111122 
SCCF RECON,ioos:station:SCCF:53:1,2011-08-03T13:00:00Z,26.6493,-81.8810,2.426,9.23,1111122 
SCCF RECON,ioos:station:SCCF:53:1,2011-08-03T14:00:00Z,26.6493,-81.8810,2.372,8.72,1111122 
SCCF RECON,ioos:station:SCCF:53:1,2011-08-03T15:00:00Z,26.6493,-81.8810,2.32,8.66,1111122 
SCCF RECON,ioos:station:SCCF:53:1,2011-08-03T16:00:00Z,26.6493,-81.8810,2.27,9.3,1111122 
SCCF RECON,ioos:station:SCCF:53:1,2011-08-03T17:00:00Z,26.6493,-81.8810,2.229,9.24,1111122 
SCCF RECON,ioos:station:SCCF:53:1,2011-08-03T18:00:00Z,26.6493,-81.8810,2.228,9.17,1111122 
SCCF RECON,ioos:station:SCCF:53:1,2011-08-03T19:00:00Z,26.6493,-81.8810,2.29,8.63,1111122 
SCCF RECON,ioos:station:SCCF:53:1,2011-08-03T20:00:00Z,26.6493,-81.8810,2.348,8.96,1111122 
SCCF RECON,ioos:station:SCCF:53:1,2011-08-03T21:00:00Z,26.6493,-81.8810,2.41,9.09,1111122 
SCCF RECON,ioos:station:SCCF:53:1,2011-08-03T22:00:00Z,26.6493,-81.8810,2.466,8.86,1111122 
SCCF RECON,ioos:station:SCCF:53:1,2011-08-03T23:00:00Z,26.6493,-81.8810,2.495,8.49,1111122 
SCCF RECON,ioos:station:SCCF:53:1,2011-08-04T00:00:00Z,26.6493,-81.8810,2.51,8.2,1111122 
SCCF RECON,ioos:station:SCCF:53:1,2011-08-04T01:00:00Z,26.6493,-81.8810,2.47,7.99,1111122 
SCCF RECON,ioos:station:SCCF:53:1,2011-08-04T02:00:00Z,26.6493,-81.8810,2.401,7.92,1111122 
SCCF RECON,ioos:station:SCCF:53:1,2011-08-04T03:00:00Z,26.6493,-81.8810,2.35,7.66,1111122 
SCCF RECON,ioos:station:SCCF:53:1,2011-08-04T04:00:00Z,26.6493,-81.8810,2.3,7.13,1111122 
SCCF RECON,ioos:station:SCCF:53:1,2011-08-04T05:00:00Z,26.6493,-81.8810,2.25,6.86,1111122 
SCCF RECON,ioos:station:SCCF:53:1,2011-08-04T06:00:00Z,26.6493,-81.8810,2.221,6.6,1111122 
SCCF RECON,ioos:station:SCCF:53:1,2011-08-04T07:00:00Z,26.6493,-81.8810,2.28,7.79,1111122 
SCCF RECON,ioos:station:SCCF:53:1,2011-08-04T08:00:00Z,26.6493,-81.8810,2.35,8.62,1111122 
SCCF RECON,ioos:station:SCCF:53:1,2011-08-04T09:00:00Z,26.6493,-81.8810,2.41,8.77,1111122 
SCCF RECON,ioos:station:SCCF:53:1,2011-08-04T10:00:00Z,26.6493,-81.8810,2.49,8.84,1111122 
SCCF RECON,ioos:station:SCCF:53:1,2011-08-04T11:00:00Z,26.6493,-81.8810,2.54,9.14,1111122 
SCCF RECON,ioos:station:SCCF:53:1,2011-08-04T12:00:00Z,26.6493,-81.8810,2.56,9.17,1111122 
SCCF RECON,ioos:station:SCCF:53:1,2011-08-04T13:00:00Z,26.6493,-81.8810,2.52,8.78,1111122 
SCCF RECON,ioos:station:SCCF:53:1,2011-08-04T14:00:00Z,26.6493,-81.8810,2.468,8.54,1111122 
SCCF RECON,ioos:station:SCCF:53:1,2011-08-04T16:00:00Z,26.6493,-81.8810,2.35,7.61,1111122 
SCCF RECON,ioos:station:SCCF:53:1,2011-08-04T17:00:00Z,26.6493,-81.8810,2.29,7.48,1111122 
SCCF RECON,ioos:station:SCCF:53:1,2011-08-04T18:00:00Z,26.6493,-81.8810,2.24,7.16,1111122 
SCCF RECON,ioos:station:SCCF:53:1,2011-08-04T19:00:00Z,26.6493,-81.8810,2.239,8.27,1111122 
SCCF RECON,ioos:station:SCCF:53:1,2011-08-04T20:00:00Z,26.6493,-81.8810,2.28,8.69,1111122 
SCCF RECON,ioos:station:SCCF:53:1,2011-08-04T21:00:00Z,26.6493,-81.8810,2.33,8.64,1111122 
SCCF RECON,ioos:station:SCCF:53:1,2011-08-04T22:00:00Z,26.6493,-81.8810,2.38,9.02,1111122 
SCCF RECON,ioos:station:SCCF:53:1,2011-08-04T23:00:00Z,26.6493,-81.8810,2.43,9.08,1111122 
SCCF RECON,ioos:station:SCCF:53:1,2011-08-05T00:00:00Z,26.6493,-81.8810,2.45,9.03,1111122 
SCCF RECON,ioos:station:SCCF:53:1,2011-08-05T01:00:00Z,26.6493,-81.8810,2.453,8.86,1111122 
SCCF RECON,ioos:station:SCCF:53:1,2011-08-05T02:00:00Z,26.6493,-81.8810,2.42,8.23,1111122 
SCCF RECON,ioos:station:SCCF:53:1,2011-08-05T03:00:00Z,26.6493,-81.8810,2.37,7.83,1111122 
SCCF RECON,ioos:station:SCCF:53:1,2011-08-05T04:00:00Z,26.6493,-81.8810,2.321,8.36,1111122 
SCCF RECON,ioos:station:SCCF:53:1,2011-08-05T05:00:00Z,26.6493,-81.8810,2.28,8.28,1111122 
SCCF RECON,ioos:station:SCCF:53:1,2011-08-05T06:00:00Z,26.6493,-81.8810,2.24,8.18,1111122 
SCCF RECON,ioos:station:SCCF:53:1,2011-08-05T07:00:00Z,26.6493,-81.8810,2.24,8.45,1111122 
SCCF RECON,ioos:station:SCCF:53:1,2011-08-05T08:00:00Z,26.6493,-81.8810,2.31,8.75,1111122 
SCCF RECON,ioos:station:SCCF:53:1,2011-08-05T09:00:00Z,26.6493,-81.8810,2.37,8.53,1111122 
SCCF RECON,ioos:station:SCCF:53:1,2011-08-05T10:00:00Z,26.6493,-81.8810,2.431,8.6,1111122 
SCCF RECON,ioos:station:SCCF:53:1,2011-08-05T11:00:00Z,26.6493,-81.8810,2.5,9.2,1111122 
SCCF RECON,ioos:station:SCCF:53:1,2011-08-05T12:00:00Z,26.6493,-81.8810,2.54,8.95,1111122 
SCCF RECON,ioos:station:SCCF:53:1,2011-08-05T13:00:00Z,26.6493,-81.8810,2.54,9.19,1111122 
SCCF RECON,ioos:station:SCCF:53:1,2011-08-05T14:00:00Z,26.6493,-81.8810,2.49,9.07,1111122 
SCCF RECON,ioos:station:SCCF:53:1,2011-08-05T15:00:00Z,26.6493,-81.8810,2.43,8.54,1111122 
SCCF RECON,ioos:station:SCCF:53:1,2011-08-05T16:00:00Z,26.6493,-81.8810,2.372,7.49,1111122 
SCCF RECON,ioos:station:SCCF:53:1,2011-08-05T17:00:00Z,26.6493,-81.8810,2.311,8.64,1111122 
SCCF RECON,ioos:station:SCCF:53:1,2011-08-05T18:00:00Z,26.6493,-81.8810,2.26,8.85,1111122 
SCCF RECON,ioos:station:SCCF:53:1,2011-08-05T19:00:00Z,26.6493,-81.8810,2.2,9.03,1111122 
SCCF RECON,ioos:station:SCCF:53:1,2011-08-05T20:00:00Z,26.6493,-81.8810,2.16,9.04,1111122 
SCCF RECON,ioos:station:SCCF:53:1,2011-08-05T21:00:00Z,26.6493,-81.8810,2.17,8.97,1111122 
SCCF RECON,ioos:station:SCCF:53:1,2011-08-05T22:00:00Z,26.6493,-81.8810,2.227,8.82,1111122 
SCCF RECON,ioos:station:SCCF:53:1,2011-08-05T23:00:00Z,26.6493,-81.8810,2.277,9.31,1111122 
SCCF RECON,ioos:station:SCCF:53:1,2011-08-06T00:00:00Z,26.6493,-81.8810,2.319,9.03,1111122 
SCCF RECON,ioos:station:SCCF:53:1,2011-08-06T01:00:00Z,26.6493,-81.8810,2.36,9.39,1111122 
SCCF RECON,ioos:station:SCCF:53:1,2011-08-06T02:00:00Z,26.6493,-81.8810,2.386,8.99,1111122 
SCCF RECON,ioos:station:SCCF:53:1,2011-08-06T03:00:00Z,26.6493,-81.8810,2.38,9.02,1111122 
SCCF RECON,ioos:station:SCCF:53:1,2011-08-06T04:00:00Z,26.6493,-81.8810,2.35,9.07,1111122 
SCCF RECON,ioos:station:SCCF:53:1,2011-08-06T05:00:00Z,26.6493,-81.8810,2.307,8.93,1111122 
SCCF RECON,ioos:station:SCCF:53:1,2011-08-06T06:00:00Z,26.6493,-81.8810,2.26,8.79,1111122 
SCCF RECON,ioos:station:SCCF:53:1,2011-08-06T07:00:00Z,26.6493,-81.8810,2.23,9.25,1111122 
SCCF RECON,ioos:station:SCCF:53:1,2011-08-06T08:00:00Z,26.6493,-81.8810,2.26,8.9,1111122 
SCCF RECON,ioos:station:SCCF:53:1,2011-08-06T09:00:00Z,26.6493,-81.8810,2.32,9.06,1111122 
SCCF RECON,ioos:station:SCCF:53:1,2011-08-06T10:00:00Z,26.6493,-81.8810,2.38,9.1,1111122 
SCCF RECON,ioos:station:SCCF:53:1,2011-08-06T11:00:00Z,26.6493,-81.8810,2.44,10.34,1111122 
SCCF RECON,ioos:station:SCCF:53:1,2011-08-06T12:00:00Z,26.6493,-81.8810,2.51,10.37,1111122 
SCCF RECON,ioos:station:SCCF:53:1,2011-08-06T13:00:00Z,26.6493,-81.8810,2.55,9.87,1111122 
SCCF RECON,ioos:station:SCCF:53:1,2011-08-06T14:00:00Z,26.6493,-81.8810,2.548,9.98,1111122 
SCCF RECON,ioos:station:SCCF:53:1,2011-08-06T15:00:00Z,26.6493,-81.8810,2.499,9.49,1111122 
SCCF RECON,ioos:station:SCCF:53:1,2011-08-06T16:00:00Z,26.6493,-81.8810,2.44,9.15,1111122 
SCCF RECON,ioos:station:SCCF:53:1,2011-08-06T17:00:00Z,26.6493,-81.8810,2.381,9.43,1111122 
SCCF RECON,ioos:station:SCCF:53:1,2011-08-06T18:00:00Z,26.6493,-81.8810,2.32,9.44,1111122 
SCCF RECON,ioos:station:SCCF:53:1,2011-08-06T19:00:00Z,26.6493,-81.8810,2.26,9.91,1111122 
SCCF RECON,ioos:station:SCCF:53:1,2011-08-06T20:00:00Z,26.6493,-81.8810,2.194,9.5,1111122 
SCCF RECON,ioos:station:SCCF:53:1,2011-08-06T21:00:00Z,26.6493,-81.8810,2.16,9.95,1111122 
SCCF RECON,ioos:station:SCCF:53:1,2011-08-06T22:00:00Z,26.6493,-81.8810,2.16,10.07,1111122 
SCCF RECON,ioos:station:SCCF:53:1,2011-08-06T23:00:00Z,26.6493,-81.8810,2.179,10.1,1111122 
SCCF RECON,ioos:station:SCCF:53:1,2011-08-07T00:00:00Z,26.6493,-81.8810,2.221,10.12,1111122 
SCCF RECON,ioos:station:SCCF:53:1,2011-08-07T01:00:00Z,26.6493,-81.8810,2.27,10.32,1111122 
SCCF RECON,ioos:station:SCCF:53:1,2011-08-07T02:00:00Z,26.6493,-81.8810,2.32,10.85,1111122 
SCCF RECON,ioos:station:SCCF:53:1,2011-08-07T03:00:00Z,26.6493,-81.8810,2.348,10.44,1111122 
SCCF RECON,ioos:station:SCCF:53:1,2011-08-07T04:00:00Z,26.6493,-81.8810,2.36,10.01,1111122 
SCCF RECON,ioos:station:SCCF:53:1,2011-08-07T05:00:00Z,26.6493,-81.8810,2.34,9.25,1111122 
SCCF RECON,ioos:station:SCCF:53:1,2011-08-07T06:00:00Z,26.6493,-81.8810,2.315,9.25,1111122 
SCCF RECON,ioos:station:SCCF:53:1,2011-08-07T07:00:00Z,26.6493,-81.8810,2.29,9.73,1111122 
SCCF RECON,ioos:station:SCCF:53:1,2011-08-07T08:00:00Z,26.6493,-81.8810,2.271,10.22,1111122 
SCCF RECON,ioos:station:SCCF:53:1,2011-08-07T09:00:00Z,26.6493,-81.8810,2.3,10.11,1111122 
SCCF RECON,ioos:station:SCCF:53:1,2011-08-07T10:00:00Z,26.6493,-81.8810,2.35,9.96,1111122 
SCCF RECON,ioos:station:SCCF:53:1,2011-08-07T11:00:00Z,26.6493,-81.8810,2.42,10.27,1111122 
SCCF RECON,ioos:station:SCCF:53:1,2011-08-07T12:00:00Z,26.6493,-81.8810,2.48,10.47,1111122 
SCCF RECON,ioos:station:SCCF:53:1,2011-08-07T13:00:00Z,26.6493,-81.8810,2.54,10.95,1111122 
SCCF RECON,ioos:station:SCCF:53:1,2011-08-07T14:00:00Z,26.6493,-81.8810,2.579,11.15,1111122 
SCCF RECON,ioos:station:SCCF:53:1,2011-08-07T15:00:00Z,26.6493,-81.8810,2.56,10.79,1111122 
SCCF RECON,ioos:station:SCCF:53:1,2011-08-07T16:00:00Z,26.6493,-81.8810,2.521,9.83,1111122 
SCCF RECON,ioos:station:SCCF:53:1,2011-08-07T17:00:00Z,26.6493,-81.8810,2.46,9.55,1111122 
SCCF RECON,ioos:station:SCCF:53:1,2011-08-07T18:00:00Z,26.6493,-81.8810,2.4,8.45,1111122 
SCCF RECON,ioos:station:SCCF:53:1,2011-08-07T19:00:00Z,26.6493,-81.8810,2.339,7.89,1111122 
SCCF RECON,ioos:station:SCCF:53:1,2011-08-07T20:00:00Z,26.6493,-81.8810,2.276,7.79,1111122 
SCCF RECON,ioos:station:SCCF:53:1,2011-08-07T21:00:00Z,26.6493,-81.8810,2.225,7.94,1111122 
SCCF RECON,ioos:station:SCCF:53:1,2011-08-07T22:00:00Z,26.6493,-81.8810,2.18,7.29,1111122 
SCCF RECON,ioos:station:SCCF:53:1,2011-08-07T23:00:00Z,26.6493,-81.8810,2.15,8.26,1111122 
SCCF RECON,ioos:station:SCCF:53:1,2011-08-08T00:00:00Z,26.6493,-81.8810,2.15,8.99,1111122 
SCCF RECON,ioos:station:SCCF:53:1,2011-08-08T01:00:00Z,26.6493,-81.8810,2.18,9.5,1111122 
SCCF RECON,ioos:station:SCCF:53:1,2011-08-08T02:00:00Z,26.6493,-81.8810,2.22,9.54,1111122 
SCCF RECON,ioos:station:SCCF:53:1,2011-08-08T03:00:00Z,26.6493,-81.8810,2.264,9.85,1111122 
SCCF RECON,ioos:station:SCCF:53:1,2011-08-08T04:00:00Z,26.6493,-81.8810,2.31,9.41,1111122 
SCCF RECON,ioos:station:SCCF:53:1,2011-08-08T05:00:00Z,26.6493,-81.8810,2.33,8.4,1111122 
SCCF RECON,ioos:station:SCCF:53:1,2011-08-08T06:00:00Z,26.6493,-81.8810,2.34,7.95,1111122 
SCCF RECON,ioos:station:SCCF:53:1,2011-08-08T07:00:00Z,26.6493,-81.8810,2.34,7.23,1111122 
SCCF RECON,ioos:station:SCCF:53:1,2011-08-08T08:00:00Z,26.6493,-81.8810,2.35,7.94,1111122 
SCCF RECON,ioos:station:SCCF:53:1,2011-08-08T09:00:00Z,26.6493,-81.8810,2.37,7.7,1111122 
SCCF RECON,ioos:station:SCCF:53:1,2011-08-08T10:00:00Z,26.6493,-81.8810,2.43,8.83,1111122 
SCCF RECON,ioos:station:SCCF:53:1,2011-08-08T11:00:00Z,26.6493,-81.8810,2.5,8.08,1111122 
SCCF RECON,ioos:station:SCCF:53:1,2011-08-08T12:00:00Z,26.6493,-81.8810,2.54,8.18,1111122 
SCCF RECON,ioos:station:SCCF:53:1,2011-08-08T13:00:00Z,26.6493,-81.8810,2.59,8.17,1111122 
SCCF RECON,ioos:station:SCCF:53:1,2011-08-08T14:00:00Z,26.6493,-81.8810,2.637,8.37,1111122 
SCCF RECON,ioos:station:SCCF:53:1,2011-08-08T15:00:00Z,26.6493,-81.8810,2.668,8.37,1111122 
SCCF RECON,ioos:station:SCCF:53:1,2011-08-08T16:00:00Z,26.6493,-81.8810,2.661,8.45,1111122 
SCCF RECON,ioos:station:SCCF:53:1,2011-08-08T17:00:00Z,26.6493,-81.8810,2.604,8.16,1111122 
SCCF RECON,ioos:station:SCCF:53:1,2011-08-08T18:00:00Z,26.6493,-81.8810,2.548,8.05,1111122 
SCCF RECON,ioos:station:SCCF:53:1,2011-08-08T19:00:00Z,26.6493,-81.8810,2.513,7.49,1111122 
SCCF RECON,ioos:station:SCCF:53:1,2011-08-08T20:00:00Z,26.6493,-81.8810,2.427,7.11,1111122 
SCCF RECON,ioos:station:SCCF:53:1,2011-08-08T21:00:00Z,26.6493,-81.8810,2.384,6.77,1111122 
SCCF RECON,ioos:station:SCCF:53:1,2011-08-08T22:00:00Z,26.6493,-81.8810,2.325,6.57,1111122 
SCCF RECON,ioos:station:SCCF:53:1,2011-08-08T23:00:00Z,26.6493,-81.8810,2.27,6.35,1111122 
SCCF RECON,ioos:station:SCCF:53:1,2011-08-09T00:00:00Z,26.6493,-81.8810,2.23,5.83,1111122 
SCCF RECON,ioos:station:SCCF:53:1,2011-08-09T01:00:00Z,26.6493,-81.8810,2.21,5.63,1111122 
SCCF RECON,ioos:station:SCCF:53:1,2011-08-09T02:00:00Z,26.6493,-81.8810,2.22,5.63,1111122 
SCCF RECON,ioos:station:SCCF:53:1,2011-08-09T03:00:00Z,26.6493,-81.8810,2.26,6.02,1111122 
SCCF RECON,ioos:station:SCCF:53:1,2011-08-09T04:00:00Z,26.6493,-81.8810,2.29,6.42,1111122 
SCCF RECON,ioos:station:SCCF:53:1,2011-08-09T05:00:00Z,26.6493,-81.8810,2.33,6.69,1111122 
SCCF RECON,ioos:station:SCCF:53:1,2011-08-09T06:00:00Z,26.6493,-81.8810,2.37,6.5,1111122 
SCCF RECON,ioos:station:SCCF:53:1,2011-08-09T07:00:00Z,26.6493,-81.8810,2.386,6.67,1111122 
SCCF RECON,ioos:station:SCCF:53:1,2011-08-09T08:00:00Z,26.6493,-81.8810,2.39,6.65,1111122 
SCCF RECON,ioos:station:SCCF:53:1,2011-08-09T09:00:00Z,26.6493,-81.8810,2.371,6.8,1111122 
SCCF RECON,ioos:station:SCCF:53:1,2011-08-09T10:00:00Z,26.6493,-81.8810,2.373,6.38,1111122 
SCCF RECON,ioos:station:SCCF:53:1,2011-08-09T11:00:00Z,26.6493,-81.8810,2.41,6.82,1111122 
SCCF RECON,ioos:station:SCCF:53:1,2011-08-09T12:00:00Z,26.6493,-81.8810,2.45,6.93,1111122 
SCCF RECON,ioos:station:SCCF:53:1,2011-08-09T13:00:00Z,26.6493,-81.8810,2.503,7.12,1111122 
SCCF RECON,ioos:station:SCCF:53:1,2011-08-09T14:00:00Z,26.6493,-81.8810,2.567,7.33,1111122 
SCCF RECON,ioos:station:SCCF:53:1,2011-08-09T15:00:00Z,26.6493,-81.8810,2.615,7.62,1111122 
SCCF RECON,ioos:station:SCCF:53:1,2011-08-09T16:00:00Z,26.6493,-81.8810,2.682,8.22,1111122 
SCCF RECON,ioos:station:SCCF:53:1,2011-08-09T17:00:00Z,26.6493,-81.8810,2.692,8.23,1111122 
SCCF RECON,ioos:station:SCCF:53:1,2011-08-09T18:00:00Z,26.6493,-81.8810,2.65,7.89,1111122 
SCCF RECON,ioos:station:SCCF:53:1,2011-08-09T19:00:00Z,26.6493,-81.8810,2.58,7.32,1111122 
SCCF RECON,ioos:station:SCCF:53:1,2011-08-09T20:00:00Z,26.6493,-81.8810,2.52,6.8,1111122 
SCCF RECON,ioos:station:SCCF:53:1,2011-08-09T21:00:00Z,26.6493,-81.8810,2.466,6.12,1111122 
SCCF RECON,ioos:station:SCCF:53:1,2011-08-09T22:00:00Z,26.6493,-81.8810,2.4,6.06,1111122 
SCCF RECON,ioos:station:SCCF:53:1,2011-08-09T23:00:00Z,26.6493,-81.8810,2.34,5.77,1111122 
SCCF RECON,ioos:station:SCCF:53:1,2011-08-10T00:00:00Z,26.6493,-81.8810,2.28,5.38,1111122 
SCCF RECON,ioos:station:SCCF:53:1,2011-08-10T01:00:00Z,26.6493,-81.8810,2.23,5.01,1111122 
SCCF RECON,ioos:station:SCCF:53:1,2011-08-10T02:00:00Z,26.6493,-81.8810,2.2,4.66,1111122 
SCCF RECON,ioos:station:SCCF:53:1,2011-08-10T03:00:00Z,26.6493,-81.8810,2.196,5.23,1111122 
SCCF RECON,ioos:station:SCCF:53:1,2011-08-10T04:00:00Z,26.6493,-81.8810,2.23,6.24,1111122 
SCCF RECON,ioos:station:SCCF:53:1,2011-08-10T05:00:00Z,26.6493,-81.8810,2.28,6.29,1111122 
SCCF RECON,ioos:station:SCCF:53:1,2011-08-10T06:00:00Z,26.6493,-81.8810,2.321,7.35,1111122 
SCCF RECON,ioos:station:SCCF:53:1,2011-08-10T07:00:00Z,26.6493,-81.8810,2.37,7.24,1111122 
SCCF RECON,ioos:station:SCCF:53:1,2011-08-10T08:00:00Z,26.6493,-81.8810,2.38,6.39,1111122 
SCCF RECON,ioos:station:SCCF:53:1,2011-08-10T09:00:00Z,26.6493,-81.8810,2.346,6.06,1111122 
SCCF RECON,ioos:station:SCCF:53:1,2011-08-10T10:00:00Z,26.6493,-81.8810,2.31,5.81,1111122 
SCCF RECON,ioos:station:SCCF:53:1,2011-08-10T11:00:00Z,26.6493,-81.8810,2.3,5.78,1111122 
SCCF RECON,ioos:station:SCCF:53:1,2011-08-10T12:00:00Z,26.6493,-81.8810,2.357,6.15,1111122 
SCCF RECON,ioos:station:SCCF:53:1,2011-08-10T13:00:00Z,26.6493,-81.8810,2.424,6.22,1111122 
SCCF RECON,ioos:station:SCCF:53:1,2011-08-10T14:00:00Z,26.6493,-81.8810,2.49,7.09,1111122 
SCCF RECON,ioos:station:SCCF:53:1,2011-08-10T15:00:00Z,26.6493,-81.8810,2.572,6.98,1111122 
SCCF RECON,ioos:station:SCCF:53:1,2011-08-10T16:00:00Z,26.6493,-81.8810,2.644,7.24,1111122 
SCCF RECON,ioos:station:SCCF:53:1,2011-08-10T17:00:00Z,26.6493,-81.8810,2.697,8.04,1111122 
SCCF RECON,ioos:station:SCCF:53:1,2011-08-10T18:00:00Z,26.6493,-81.8810,2.68,7.48,1111122 
SCCF RECON,ioos:station:SCCF:53:1,2011-08-10T19:00:00Z,26.6493,-81.8810,2.625,6.7,1111122 
SCCF RECON,ioos:station:SCCF:53:1,2011-08-10T20:00:00Z,26.6493,-81.8810,2.551,6.35,1111122 
SCCF RECON,ioos:station:SCCF:53:1,2011-08-10T21:00:00Z,26.6493,-81.8810,2.509,5.67,1111122 
SCCF RECON,ioos:station:SCCF:53:1,2011-08-10T22:00:00Z,26.6493,-81.8810,2.45,5.02,1111122 
SCCF RECON,ioos:station:SCCF:53:1,2011-08-10T23:00:00Z,26.6493,-81.8810,2.383,4.72,1111122 
SCCF RECON,ioos:station:SCCF:53:1,2011-08-11T00:00:00Z,26.6493,-81.8810,2.33,4.43,1111122 
SCCF RECON,ioos:station:SCCF:53:1,2011-08-11T01:00:00Z,26.6493,-81.8810,2.27,4.12,1111122 
SCCF RECON,ioos:station:SCCF:53:1,2011-08-11T02:00:00Z,26.6493,-81.8810,2.22,3.81,1111122 
SCCF RECON,ioos:station:SCCF:53:1,2011-08-11T03:00:00Z,26.6493,-81.8810,2.18,3.56,1111122 
SCCF RECON,ioos:station:SCCF:53:1,2011-08-11T04:00:00Z,26.6493,-81.8810,2.19,3.93,1111122 
SCCF RECON,ioos:station:SCCF:53:1,2011-08-11T05:00:00Z,26.6493,-81.8810,2.252,5.08,1111122 
SCCF RECON,ioos:station:SCCF:53:1,2011-08-11T06:00:00Z,26.6493,-81.8810,2.3,6.41,1111122 
SCCF RECON,ioos:station:SCCF:53:1,2011-08-11T07:00:00Z,26.6493,-81.8810,2.33,7.43,1111122 
SCCF RECON,ioos:station:SCCF:53:1,2011-08-11T08:00:00Z,26.6493,-81.8810,2.35,6.51,1111122 
SCCF RECON,ioos:station:SCCF:53:1,2011-08-11T09:00:00Z,26.6493,-81.8810,2.311,6.31,1111122 
SCCF RECON,ioos:station:SCCF:53:1,2011-08-11T10:00:00Z,26.6493,-81.8810,2.29,5.8,1111122 
SCCF RECON,ioos:station:SCCF:53:1,2011-08-11T11:00:00Z,26.6493,-81.8810,2.267,5.88,1111122 
SCCF RECON,ioos:station:SCCF:53:1,2011-08-11T12:00:00Z,26.6493,-81.8810,2.28,6.44,1111122 
SCCF RECON,ioos:station:SCCF:53:1,2011-08-11T13:00:00Z,26.6493,-81.8810,2.33,6.7,1111122 
SCCF RECON,ioos:station:SCCF:53:1,2011-08-11T14:00:00Z,26.6493,-81.8810,2.4,6.58,1111122 
SCCF RECON,ioos:station:SCCF:53:1,2011-08-11T15:00:00Z,26.6493,-81.8810,2.476,7.07,1111122 
SCCF RECON,ioos:station:SCCF:53:1,2011-08-11T16:00:00Z,26.6493,-81.8810,2.54,7.04,1111122 
SCCF RECON,ioos:station:SCCF:53:1,2011-08-11T17:00:00Z,26.6493,-81.8810,2.59,6.98,1111122 
SCCF RECON,ioos:station:SCCF:53:1,2011-08-11T18:00:00Z,26.6493,-81.8810,2.616,7.41,1111122 
SCCF RECON,ioos:station:SCCF:53:1,2011-08-11T19:00:00Z,26.6493,-81.8810,2.59,8.04,1111122 
SCCF RECON,ioos:station:SCCF:53:1,2011-08-11T20:00:00Z,26.6493,-81.8810,2.531,4.76,1111122 
SCCF RECON,ioos:station:SCCF:53:1,2011-08-11T21:00:00Z,26.6493,-81.8810,2.47,4.54,1111122 